#timestamp,LO_Frequency,Hit 
1499792415.3,286046984.8,N
1499792435.1,286046982.9,N
1499792455.8,286046982.7,N
1499792475.7,286046982.4,N
1499792495.5,286046982.2,N
1499792515.3,286046984.7,N
1499792535.2,286046982.2,N
1499792555.0,286046982.4,N
1499792555.9,286046982.4,N
1499792575.7,286046982.5,N
1499792595.6,286046985.1,N
1499792615.4,286046984.2,N
1499792635.2,286046984.0,N
1499792655.1,286046982.8,N
1499792656.0,286046982.8,N
1499792675.8,286046985.1,N
1499792695.6,286046984.9,N
1499792715.5,286046984.9,N
1499792735.3,286046984.9,N
1499792755.1,286046984.5,N
1499792775.9,286046984.9,N
1499792795.7,286046984.9,N
1499792815.5,286046982.6,N
1499792835.3,286046982.6,N
1499792855.2,286046982.2,N
1499792875.0,286046982.4,N
1499792875.9,286046982.4,N
1499792895.7,286046982.7,N
1499792915.6,286046985.1,N
1499792935.4,286046984.4,N
1499792955.2,286046983.8,N
1499792975.1,286046985.5,N
1499792976.0,286046985.5,N
1499792995.8,286046986.1,N
1499793015.6,286046986.8,N
1499793035.5,286046986.6,N
1499793055.3,286046986.6,N
1499793075.1,286046985.8,N
1499793095.9,286046984.0,N
1499793115.7,286046985.0,N
1499793135.5,286046986.8,N
1499793155.4,286046984.2,N
1499793175.2,286046986.2,N
1499793195.0,286046986.1,N
1499793195.9,286046986.1,N
1499793215.7,286046986.6,N
1499793235.6,286046984.8,N
1499793255.4,286046985.2,N
1499793275.2,286046983.8,N
1499793295.1,286046984.5,N
1499793296.0,286046984.5,N
1499793315.8,286046982.5,N
1499793335.6,286046984.6,N
1499793355.5,286046984.9,N
1499793375.3,286046984.7,N
1499793395.1,286046982.6,N
1499793415.9,286046983.5,N
1499793435.7,286046982.8,N
1499793455.5,286046982.6,N
1499793475.4,286046982.6,N
1499793495.2,286046984.9,N
1499793515.0,286046984.5,N
1499793515.9,286046984.5,N
1499793535.8,286046984.6,N
1499793555.6,286046984.5,N
1499793575.4,286046984.9,N
1499793595.2,286046986.5,N
1499793615.1,286046986.7,N
1499793616.0,286046986.7,N
1499793635.8,286046986.5,N
1499793655.6,286046985.5,N
1499793675.5,286046985.7,N
1499793695.3,286046983.8,N
1499793715.1,286046984.5,N
1499793735.9,286046985.0,N
1499793755.7,286046984.8,N
1499793775.5,286046985.1,N
1499793795.4,286046983.7,N
1499793815.2,286046984.0,N
1499793835.0,286046984.3,N
1499793835.9,286046984.3,N
1499793855.8,286046984.5,N
1499793875.6,286046984.4,N
1499793895.4,286046984.0,N
1499793915.3,286046985.0,N
1499793935.1,286046984.2,N
1499793936.0,286046984.2,N
1499793955.8,286046986.4,N
1499793975.6,286046988.4,N
1499793995.5,286046986.7,N
1499794015.3,286046986.7,N
1499794035.1,286046986.1,N
1499794055.9,286046984.2,N
1499794075.7,286046986.1,N
1499794095.5,286046985.9,N
1499794115.4,286046985.9,N
1499794135.2,286046985.7,N
1499794155.0,286046985.7,N
1499794155.9,286046985.7,N
1499794175.8,286046986.6,N
1499794195.6,286046984.1,N
1499794215.4,286046988.4,N
1499794235.3,286046985.6,N
1499794255.1,286046986.0,N
1499794256.0,286046986.0,N
1499794275.8,286046985.9,N
1499794295.3,286046985.5,N
1499794315.1,286046988.1,N
1499794335.8,286046986.7,N
1499794355.7,286046986.5,N
1499794375.5,286046985.9,N
1499794395.3,286046985.4,N
1499794415.2,286046986.6,N
1499794435.9,286046986.7,N
1499794455.7,286046984.2,N
1499794475.6,286046984.5,N
1499794495.4,286046986.7,N
1499794515.2,286046986.7,N
1499794535.1,286046983.9,N
1499794536.0,286046983.9,N
1499794555.8,286046986.8,N
1499794575.6,286046983.7,N
1499794595.5,286046983.7,N
1499794615.3,286046986.6,N
1499794635.1,286046985.6,N
1499794655.8,286046986.2,N
1499794675.7,286046986.6,N
1499794695.5,286046983.9,N
1499794715.3,286046983.7,N
1499794735.2,286046984.0,N
1499794755.0,286046983.8,N
1499794755.9,286046983.8,N
1499794775.7,286046984.6,N
1499794795.6,286046986.4,N
1499794815.4,286046983.8,N
1499794835.2,286046986.3,N
1499794855.1,286046985.9,N
1499794856.0,286046985.9,N
1499794875.8,286046985.7,N
1499794895.6,286046985.6,N
1499794915.5,286046986.1,N
1499794935.3,286046986.4,N
1499794955.1,286046986.3,N
1499794975.9,286046986.0,N
1499794995.7,286046986.5,N
1499795015.5,286046985.4,N
1499795035.3,286046985.5,N
1499795055.2,286046985.9,N
1499795075.0,286046985.6,N
1499795075.9,286046985.6,N
1499795095.7,286046986.2,N
1499795115.6,286046986.1,N
1499795135.4,286046988.3,N
1499795155.2,286046988.1,N
1499795175.1,286046986.9,N
1499795176.0,286046986.9,N
1499795195.8,286046989.5,N
1499795215.6,286046988.0,N
1499795235.5,286046988.3,N
1499795255.3,286046988.0,N
1499795275.1,286046987.4,N
1499795295.9,286046987.3,N
1499795315.7,286046989.9,N
1499795335.5,286046989.2,N
1499795355.4,286046989.5,N
1499795375.2,286046987.8,N
1499795395.0,286046987.2,N
1499795395.9,286046987.2,N
1499795415.7,286046987.7,N
1499795435.6,286046987.6,N
1499795455.4,286046987.3,N
1499795475.2,286046987.4,N
1499795495.1,286046987.4,N
1499795496.0,286046987.4,N
1499795515.8,286046989.8,N
1499795535.6,286046989.5,N
1499795555.5,286046989.6,N
1499795575.3,286046988.1,N
1499795595.1,286046987.0,N
1499795615.9,286046986.9,N
1499795635.7,286046986.9,N
1499795655.5,286046987.2,N
1499795675.4,286046987.0,N
1499795695.2,286046986.9,N
1499795715.0,286046987.8,N
1499795715.9,286046987.8,N
1499795735.8,286046987.1,N
1499795755.6,286046987.4,N
1499795775.4,286046990.0,N
1499795795.2,286046989.8,N
1499795815.1,286046988.7,N
1499795816.0,286046988.7,N
1499795835.8,286046989.2,N
1499795855.6,286046989.0,N
1499795875.5,286046988.8,N
1499795895.3,286046989.2,N
1499795915.1,286046989.7,N
1499795935.9,286046989.2,N
1499795955.7,286046988.8,N
1499795975.5,286046989.2,N
1499795995.4,286046988.9,N
